date,time,SUV Intensity [MED/Hr],UV Index,Daily total [MED],Since Last [MED]
25/03/2023,00:04:27,0.000,0.0,0.0,0.0
25/03/2023,00:05:27,-0.000,0.0,0.0,0.0
25/03/2023,00:06:27,-0.001,0.0,0.0,0.0
25/03/2023,00:07:27,-0.001,0.0,0.0,0.0
25/03/2023,00:08:28,-0.001,0.0,0.0,0.0
25/03/2023,00:09:28,-0.000,0.0,0.0,0.0
25/03/2023,00:10:27,0.000,0.0,0.0,0.0
25/03/2023,00:11:28,-0.000,0.0,0.0,0.0
25/03/2023,00:12:27,0.000,0.0,0.0,0.0
25/03/2023,00:13:28,0.000,0.0,0.0,0.0
25/03/2023,00:14:27,0.000,0.0,0.0,0.0
25/03/2023,00:15:28,0.000,0.0,0.0,0.0
25/03/2023,00:16:27,0.000,0.0,0.0,0.0
25/03/2023,00:17:27,0.000,0.0,0.0,0.0
25/03/2023,00:18:27,-0.000,0.0,0.0,0.0
25/03/2023,00:19:28,-0.000,0.0,0.0,0.0
25/03/2023,00:20:28,0.001,0.0,0.0,0.0
25/03/2023,00:21:28,-0.000,0.0,0.0,0.0
25/03/2023,00:22:27,-0.000,0.0,0.0,0.0
25/03/2023,00:23:27,-0.000,0.0,0.0,0.0
25/03/2023,00:24:27,0.000,0.0,0.0,0.0
25/03/2023,00:25:27,-0.000,0.0,0.0,0.0
25/03/2023,00:26:27,-0.000,0.0,0.0,0.0
25/03/2023,00:27:28,0.000,0.0,0.0,0.0
25/03/2023,00:28:27,-0.000,0.0,0.0,0.0
25/03/2023,00:29:27,-0.000,0.0,0.0,0.0
25/03/2023,00:30:28,-0.000,0.0,0.0,0.0
25/03/2023,00:31:28,-0.001,0.0,0.0,0.0
25/03/2023,00:32:27,-0.000,0.0,0.0,0.0
25/03/2023,00:33:27,-0.000,0.0,0.0,0.0
25/03/2023,00:34:27,-0.000,0.0,0.0,0.0
25/03/2023,00:35:28,0.000,0.0,0.0,0.0
25/03/2023,00:36:27,-0.000,0.0,0.0,0.0
25/03/2023,00:37:27,-0.001,0.0,0.0,0.0
25/03/2023,00:38:27,0.000,0.0,0.0,0.0
25/03/2023,00:39:28,-0.000,0.0,0.0,0.0
25/03/2023,00:40:28,0.001,0.0,0.0,0.0
25/03/2023,00:41:27,0.000,0.0,0.0,0.0
25/03/2023,00:42:28,0.000,0.0,0.0,0.0
25/03/2023,00:43:27,-0.001,0.0,0.0,0.0
25/03/2023,00:44:28,0.000,0.0,0.0,0.0
25/03/2023,00:45:28,0.001,0.0,0.0,0.0
25/03/2023,00:46:27,0.000,0.0,0.0,0.0
25/03/2023,00:47:28,0.000,0.0,0.0,0.0
25/03/2023,00:48:27,0.000,0.0,0.0,0.0
25/03/2023,00:49:27,0.000,0.0,0.0,0.0
25/03/2023,00:50:27,0.001,0.0,0.0,0.0
25/03/2023,00:51:27,0.000,0.0,0.0,0.0
25/03/2023,00:52:27,0.000,0.0,0.0,0.0
25/03/2023,00:53:27,0.000,0.0,0.0,0.0
25/03/2023,00:54:27,0.000,0.0,0.0,0.0
25/03/2023,00:55:27,0.000,0.0,0.0,0.0
25/03/2023,00:56:27,0.000,0.0,0.0,0.0
25/03/2023,00:57:27,-0.001,0.0,0.0,0.0
25/03/2023,00:58:27,0.000,0.0,0.0,0.0
25/03/2023,00:59:28,0.000,0.0,0.0,0.0
25/03/2023,01:00:27,-0.001,0.0,0.0,0.0
25/03/2023,01:01:27,0.000,0.0,0.0,0.0
25/03/2023,01:02:27,0.000,0.0,0.0,0.0
25/03/2023,01:03:27,0.001,0.0,0.0,0.0
25/03/2023,01:04:28,0.000,0.0,0.0,0.0
25/03/2023,01:05:27,0.000,0.0,0.0,0.0
25/03/2023,01:06:27,-0.001,0.0,0.0,0.0
25/03/2023,01:07:27,0.001,0.0,0.0,0.0
25/03/2023,01:08:27,0.001,0.0,0.0,0.0
25/03/2023,01:09:28,0.000,0.0,0.0,0.0
25/03/2023,01:10:28,0.001,0.0,0.0,0.0
25/03/2023,01:11:28,0.000,0.0,0.0,0.0
25/03/2023,01:12:28,0.000,0.0,0.0,0.0
25/03/2023,01:13:27,0.000,0.0,0.0,0.0
25/03/2023,01:14:27,-0.001,0.0,0.0,0.0
25/03/2023,01:15:27,0.001,0.0,0.0,0.0
25/03/2023,01:16:27,-0.001,0.0,0.0,0.0
25/03/2023,01:17:27,0.000,0.0,0.0,0.0
25/03/2023,01:18:27,0.000,0.0,0.0,0.0
25/03/2023,01:19:28,0.001,0.0,0.0,0.0
25/03/2023,01:20:28,0.000,0.0,0.0,0.0
25/03/2023,01:21:27,0.000,0.0,0.0,0.0
25/03/2023,01:22:28,0.000,0.0,0.0,0.0
25/03/2023,01:23:27,-0.001,0.0,0.0,0.0
25/03/2023,01:24:27,-0.000,0.0,0.0,0.0
25/03/2023,01:25:27,0.001,0.0,0.0,0.0
25/03/2023,01:26:27,0.001,0.0,0.0,0.0
25/03/2023,01:27:27,0.001,0.0,0.0,0.0
25/03/2023,01:28:27,-0.001,0.0,0.0,0.0
25/03/2023,01:29:28,0.001,0.0,0.0,0.0
25/03/2023,01:30:29,0.001,0.0,0.0,0.0
25/03/2023,01:31:27,0.001,0.0,0.0,0.0
25/03/2023,01:32:28,-0.000,0.0,0.0,0.0
25/03/2023,01:33:27,0.000,0.0,0.0,0.0
25/03/2023,01:34:28,0.001,0.0,0.0,0.0
25/03/2023,01:35:29,0.000,0.0,0.0,0.0
25/03/2023,01:36:27,0.000,0.0,0.0,0.0
25/03/2023,01:37:27,0.001,0.0,0.0,0.0
25/03/2023,01:38:27,0.000,0.0,0.0,0.0
25/03/2023,01:39:27,0.000,0.0,0.0,0.0
25/03/2023,01:40:27,0.001,0.0,0.0,0.0
25/03/2023,01:41:27,0.000,0.0,0.0,0.0
25/03/2023,01:42:27,0.000,0.0,0.0,0.0
25/03/2023,01:43:28,0.001,0.0,0.0,0.0
25/03/2023,01:44:28,0.000,0.0,0.0,0.0
25/03/2023,01:45:28,0.000,0.0,0.0,0.0
25/03/2023,01:46:28,0.000,0.0,0.0,0.0
25/03/2023,01:47:28,-0.000,0.0,0.0,0.0
25/03/2023,01:48:27,0.000,0.0,0.0,0.0
25/03/2023,01:49:28,0.000,0.0,0.0,0.0
25/03/2023,01:50:28,0.001,0.0,0.0,0.0
25/03/2023,01:51:27,0.000,0.0,0.0,0.0
25/03/2023,01:52:28,0.000,0.0,0.0,0.0
25/03/2023,01:53:27,0.000,0.0,0.0,0.0
25/03/2023,01:54:27,0.000,0.0,0.0,0.0
25/03/2023,01:55:27,0.000,0.0,0.0,0.0
25/03/2023,01:56:27,0.000,0.0,0.0,0.0
25/03/2023,01:57:27,0.000,0.0,0.0,0.0
25/03/2023,01:58:27,0.000,0.0,0.0,0.0
25/03/2023,01:59:27,0.000,0.0,0.0,0.0
25/03/2023,02:00:27,0.001,0.0,0.0,0.0
25/03/2023,02:01:28,-0.000,0.0,0.0,0.0
25/03/2023,02:02:28,0.000,0.0,0.0,0.0
25/03/2023,02:03:28,0.000,0.0,0.0,0.0
25/03/2023,02:04:28,0.000,0.0,0.0,0.0
25/03/2023,02:05:28,0.000,0.0,0.0,0.0
25/03/2023,02:06:28,0.000,0.0,0.0,0.0
25/03/2023,02:07:28,0.001,0.0,0.0,0.0
25/03/2023,02:08:27,0.001,0.0,0.0,0.0
25/03/2023,02:09:28,0.001,0.0,0.0,0.0
25/03/2023,02:10:28,0.001,0.0,0.0,0.0
25/03/2023,02:11:27,0.000,0.0,0.0,0.0
25/03/2023,02:12:27,0.000,0.0,0.0,0.0
25/03/2023,02:13:27,0.000,0.0,0.0,0.0
25/03/2023,02:14:27,0.000,0.0,0.0,0.0
25/03/2023,02:15:28,0.000,0.0,0.0,0.0
25/03/2023,02:16:27,0.000,0.0,0.0,0.0
25/03/2023,02:17:28,0.000,0.0,0.0,0.0
25/03/2023,02:18:27,0.001,0.0,0.0,0.0
25/03/2023,02:19:27,0.000,0.0,0.0,0.0
25/03/2023,02:20:27,0.000,0.0,0.0,0.0
25/03/2023,02:21:27,0.000,0.0,0.0,0.0
25/03/2023,02:22:28,0.000,0.0,0.0,0.0
25/03/2023,02:23:28,0.000,0.0,0.0,0.0
25/03/2023,02:24:26,0.000,0.0,0.0,0.0
25/03/2023,02:25:28,0.000,0.0,0.0,0.0
25/03/2023,02:26:28,0.000,0.0,0.0,0.0
25/03/2023,02:27:27,0.001,0.0,0.0,0.0
25/03/2023,02:28:27,0.000,0.0,0.0,0.0
25/03/2023,02:29:27,0.000,0.0,0.0,0.0
25/03/2023,02:30:27,0.001,0.0,0.0,0.0
25/03/2023,02:31:28,0.000,0.0,0.0,0.0
25/03/2023,02:32:28,0.001,0.0,0.0,0.0
25/03/2023,02:33:28,0.000,0.0,0.0,0.0
25/03/2023,02:34:28,0.000,0.0,0.0,0.0
25/03/2023,02:35:28,0.000,0.0,0.0,0.0
25/03/2023,02:36:28,0.000,0.0,0.0,0.0
25/03/2023,02:37:28,0.000,0.0,0.0,0.0
25/03/2023,02:38:28,0.000,0.0,0.0,0.0
25/03/2023,02:39:28,0.000,0.0,0.0,0.0
25/03/2023,02:40:28,0.000,0.0,0.0,0.0
25/03/2023,02:41:28,0.001,0.0,0.0,0.0
25/03/2023,02:42:28,0.000,0.0,0.0,0.0
25/03/2023,02:43:28,0.001,0.0,0.0,0.0
25/03/2023,02:44:28,0.000,0.0,0.0,0.0
25/03/2023,02:45:27,0.000,0.0,0.0,0.0
25/03/2023,02:46:28,0.000,0.0,0.0,0.0
25/03/2023,02:47:27,0.000,0.0,0.0,0.0
25/03/2023,02:48:27,0.000,0.0,0.0,0.0
25/03/2023,02:49:27,0.000,0.0,0.0,0.0
25/03/2023,02:50:27,0.000,0.0,0.0,0.0
25/03/2023,02:51:27,0.000,0.0,0.0,0.0
25/03/2023,02:52:28,0.001,0.0,0.0,0.0
25/03/2023,02:53:28,0.000,0.0,0.0,0.0
25/03/2023,02:54:27,0.000,0.0,0.0,0.0
25/03/2023,02:55:27,0.001,0.0,0.0,0.0
25/03/2023,02:56:28,0.000,0.0,0.0,0.0
25/03/2023,02:57:27,0.000,0.0,0.0,0.0
25/03/2023,02:58:27,0.001,0.0,0.0,0.0
25/03/2023,02:59:28,-0.000,0.0,0.0,0.0
25/03/2023,03:00:28,0.000,0.0,0.0,0.0
25/03/2023,03:01:28,0.000,0.0,0.0,0.0
25/03/2023,03:02:28,0.000,0.0,0.0,0.0
25/03/2023,03:03:28,0.000,0.0,0.0,0.0
25/03/2023,03:04:27,0.000,0.0,0.0,0.0
25/03/2023,03:05:28,0.000,0.0,0.0,0.0
25/03/2023,03:06:28,0.000,0.0,0.0,0.0
25/03/2023,03:07:28,0.001,0.0,0.0,0.0
25/03/2023,03:08:27,0.001,0.0,0.0,0.0
25/03/2023,03:09:28,0.000,0.0,0.0,0.0
25/03/2023,03:10:28,0.000,0.0,0.0,0.0
25/03/2023,03:11:28,0.001,0.0,0.0,0.0
25/03/2023,03:12:28,0.001,0.0,0.0,0.0
25/03/2023,03:13:27,0.000,0.0,0.0,0.0
25/03/2023,03:14:28,0.001,0.0,0.0,0.0
25/03/2023,03:15:28,0.000,0.0,0.0,0.0
25/03/2023,03:16:27,0.000,0.0,0.0,0.0
25/03/2023,03:17:28,0.000,0.0,0.0,0.0
25/03/2023,03:18:28,0.000,0.0,0.0,0.0
25/03/2023,03:19:28,0.000,0.0,0.0,0.0
25/03/2023,03:20:27,0.000,0.0,0.0,0.0
25/03/2023,03:21:28,0.001,0.0,0.0,0.0
25/03/2023,03:22:28,0.000,0.0,0.0,0.0
25/03/2023,03:23:27,-0.000,0.0,0.0,0.0
25/03/2023,03:24:27,-0.001,0.0,0.0,0.0
25/03/2023,03:25:28,0.001,0.0,0.0,0.0
25/03/2023,03:26:28,0.000,0.0,0.0,0.0
25/03/2023,03:27:28,0.001,0.0,0.0,0.0
25/03/2023,03:28:27,0.000,0.0,0.0,0.0
25/03/2023,03:29:27,0.000,0.0,0.0,0.0
25/03/2023,03:30:28,0.000,0.0,0.0,0.0
25/03/2023,03:31:28,-0.001,0.0,0.0,0.0
25/03/2023,03:32:28,0.000,0.0,0.0,0.0
25/03/2023,03:33:28,-0.001,0.0,0.0,0.0
25/03/2023,03:34:27,0.000,0.0,0.0,0.0
25/03/2023,03:35:28,0.000,0.0,0.0,0.0
25/03/2023,03:36:27,0.000,0.0,0.0,0.0
25/03/2023,03:37:28,0.000,0.0,0.0,0.0
25/03/2023,03:38:27,-0.000,0.0,0.0,0.0
25/03/2023,03:39:28,0.000,0.0,0.0,0.0
25/03/2023,03:40:28,0.000,0.0,0.0,0.0
25/03/2023,03:41:28,0.000,0.0,0.0,0.0
25/03/2023,03:42:27,0.000,0.0,0.0,0.0
25/03/2023,03:43:28,0.000,0.0,0.0,0.0
25/03/2023,03:44:27,0.000,0.0,0.0,0.0
25/03/2023,03:45:28,0.000,0.0,0.0,0.0
25/03/2023,03:46:28,0.001,0.0,0.0,0.0
25/03/2023,03:47:28,-0.001,0.0,0.0,0.0
25/03/2023,03:48:27,-0.001,0.0,0.0,0.0
25/03/2023,03:49:28,-0.000,0.0,0.0,0.0
25/03/2023,03:50:27,-0.000,0.0,0.0,0.0
25/03/2023,03:51:28,-0.000,0.0,0.0,0.0
25/03/2023,03:52:27,-0.000,0.0,0.0,0.0
25/03/2023,03:53:28,-0.000,0.0,0.0,0.0
25/03/2023,03:54:28,-0.002,0.0,0.0,0.0
25/03/2023,03:55:27,-0.000,0.0,0.0,0.0
25/03/2023,03:56:27,-0.000,0.0,0.0,0.0
25/03/2023,03:57:27,-0.000,0.0,0.0,0.0
25/03/2023,03:58:27,-0.000,0.0,0.0,0.0
25/03/2023,03:59:27,0.000,0.0,0.0,0.0
25/03/2023,04:00:27,0.001,0.0,0.0,0.0
25/03/2023,04:01:27,-0.000,0.0,0.0,0.0
25/03/2023,04:02:28,-0.000,0.0,0.0,0.0
25/03/2023,04:03:28,-0.000,0.0,0.0,0.0
25/03/2023,04:04:28,-0.000,0.0,0.0,0.0
25/03/2023,04:05:28,-0.000,0.0,0.0,0.0
25/03/2023,04:06:27,-0.000,0.0,0.0,0.0
25/03/2023,04:07:28,-0.001,0.0,0.0,0.0
25/03/2023,04:08:28,0.000,0.0,0.0,0.0
25/03/2023,04:09:27,-0.000,0.0,0.0,0.0
25/03/2023,04:10:27,-0.001,0.0,0.0,0.0
25/03/2023,04:11:27,-0.000,0.0,0.0,0.0
25/03/2023,04:12:27,-0.000,0.0,0.0,0.0
25/03/2023,04:13:27,-0.000,0.0,0.0,0.0
25/03/2023,04:14:27,-0.000,0.0,0.0,0.0
25/03/2023,04:15:28,-0.000,0.0,0.0,0.0
25/03/2023,04:16:28,-0.000,0.0,0.0,0.0
25/03/2023,04:17:28,-0.000,0.0,0.0,0.0
25/03/2023,04:18:28,-0.001,0.0,0.0,0.0
25/03/2023,04:19:27,0.000,0.0,0.0,0.0
25/03/2023,04:20:27,-0.000,0.0,0.0,0.0
25/03/2023,04:21:27,-0.001,0.0,0.0,0.0
25/03/2023,04:22:27,-0.001,0.0,0.0,0.0
25/03/2023,04:23:28,-0.000,0.0,0.0,0.0
25/03/2023,04:24:28,-0.001,0.0,0.0,0.0
25/03/2023,04:25:27,0.001,0.0,0.0,0.0
25/03/2023,04:26:28,-0.000,0.0,0.0,0.0
25/03/2023,04:27:28,-0.001,0.0,0.0,0.0
25/03/2023,04:28:28,-0.000,0.0,0.0,0.0
25/03/2023,04:29:28,-0.001,0.0,0.0,0.0
25/03/2023,04:30:28,0.001,0.0,0.0,0.0
25/03/2023,04:31:28,-0.000,0.0,0.0,0.0
25/03/2023,04:32:28,-0.000,0.0,0.0,0.0
25/03/2023,04:33:28,0.000,0.0,0.0,0.0
25/03/2023,04:34:28,0.000,0.0,0.0,0.0
25/03/2023,04:35:28,-0.001,0.0,0.0,0.0
25/03/2023,04:36:28,0.000,0.0,0.0,0.0
25/03/2023,04:37:27,-0.000,0.0,0.0,0.0
25/03/2023,04:38:27,0.000,0.0,0.0,0.0
25/03/2023,04:39:28,-0.000,0.0,0.0,0.0
25/03/2023,04:40:27,-0.001,0.0,0.0,0.0
25/03/2023,04:41:28,-0.000,0.0,0.0,0.0
25/03/2023,04:42:28,-0.001,0.0,0.0,0.0
25/03/2023,04:43:28,-0.000,0.0,0.0,0.0
25/03/2023,04:44:28,-0.000,0.0,0.0,0.0
25/03/2023,04:45:27,-0.001,0.0,0.0,0.0
25/03/2023,04:46:28,-0.001,0.0,0.0,0.0
25/03/2023,04:47:28,-0.001,0.0,0.0,0.0
25/03/2023,04:48:28,-0.001,0.0,0.0,0.0
25/03/2023,04:49:26,-0.002,0.0,0.0,0.0
25/03/2023,04:50:28,-0.001,0.0,0.0,0.0
25/03/2023,04:51:28,-0.000,0.0,0.0,0.0
25/03/2023,04:52:28,-0.001,0.0,0.0,0.0
25/03/2023,04:53:28,0.000,0.0,0.0,0.0
25/03/2023,04:54:27,-0.000,0.0,0.0,0.0
25/03/2023,04:55:27,-0.000,0.0,0.0,0.0
25/03/2023,04:56:27,-0.001,0.0,0.0,0.0
25/03/2023,04:57:27,-0.002,0.0,0.0,0.0
25/03/2023,04:58:27,-0.001,0.0,0.0,0.0
25/03/2023,04:59:27,-0.000,0.0,0.0,0.0
25/03/2023,05:00:28,0.001,0.0,0.0,0.0
25/03/2023,05:01:27,-0.002,0.0,0.0,0.0
25/03/2023,05:02:27,-0.000,0.0,0.0,0.0
25/03/2023,05:03:28,-0.001,0.0,0.0,0.0
25/03/2023,05:04:28,-0.001,0.0,0.0,0.0
25/03/2023,05:05:27,-0.001,0.0,0.0,0.0
25/03/2023,05:06:27,-0.001,0.0,0.0,0.0
25/03/2023,05:07:27,-0.001,0.0,0.0,0.0
25/03/2023,05:08:28,-0.001,0.0,0.0,0.0
25/03/2023,05:09:28,-0.000,0.0,0.0,0.0
25/03/2023,05:10:28,-0.001,0.0,0.0,0.0
25/03/2023,05:11:28,-0.001,0.0,0.0,0.0
25/03/2023,05:12:28,-0.002,0.0,0.0,0.0
25/03/2023,05:13:28,-0.001,0.0,0.0,0.0
25/03/2023,05:14:28,-0.001,0.0,0.0,0.0
25/03/2023,05:15:28,-0.001,0.0,0.0,0.0
25/03/2023,05:16:27,-0.001,0.0,0.0,0.0
25/03/2023,05:17:27,-0.001,0.0,0.0,0.0
25/03/2023,05:18:27,-0.001,0.0,0.0,0.0
25/03/2023,05:19:28,-0.001,0.0,0.0,0.0
25/03/2023,05:20:28,-0.001,0.0,0.0,0.0
25/03/2023,05:21:28,-0.001,0.0,0.0,0.0
25/03/2023,05:22:27,-0.001,0.0,0.0,0.0
25/03/2023,05:23:28,-0.001,0.0,0.0,0.0
25/03/2023,05:24:28,-0.001,0.0,0.0,0.0
25/03/2023,05:25:27,-0.001,0.0,0.0,0.0
25/03/2023,05:26:27,0.000,0.0,0.0,0.0
25/03/2023,05:27:28,-0.001,0.0,0.0,0.0
25/03/2023,05:28:28,-0.001,0.0,0.0,0.0
25/03/2023,05:29:27,-0.000,0.0,0.0,0.0
25/03/2023,05:30:28,0.000,0.0,0.0,0.0
25/03/2023,05:31:28,-0.000,0.0,0.0,0.0
25/03/2023,05:32:28,-0.001,0.0,0.0,0.0
25/03/2023,05:33:31,-0.001,0.0,0.0,0.0
25/03/2023,05:34:29,0.000,0.0,0.0,0.0
25/03/2023,05:35:28,-0.001,0.0,0.0,0.0
25/03/2023,05:36:30,-0.001,0.0,0.0,0.0
25/03/2023,05:37:28,-0.001,0.0,0.0,0.0
25/03/2023,05:38:27,-0.000,0.0,0.0,0.0
25/03/2023,05:39:28,0.001,0.0,0.0,0.0
25/03/2023,05:40:28,-0.000,0.0,0.0,0.0
25/03/2023,05:41:28,-0.000,0.0,0.0,0.0
25/03/2023,05:42:28,0.000,0.0,0.0,0.0
25/03/2023,05:43:28,0.000,0.0,0.0,0.0
25/03/2023,05:44:28,-0.000,0.0,0.0,0.0
25/03/2023,05:45:28,-0.000,0.0,0.0,0.0
25/03/2023,05:46:28,-0.000,0.0,0.0,0.0
25/03/2023,05:47:27,-0.000,0.0,0.0,0.0
25/03/2023,05:48:50,0.001,0.0,0.0,0.0
25/03/2023,05:50:28,-0.000,0.0,0.0,0.0
25/03/2023,05:51:28,-0.000,0.0,0.0,0.0
25/03/2023,05:52:27,0.001,0.0,0.0,0.0
25/03/2023,05:53:28,-0.000,0.0,0.0,0.0
25/03/2023,05:54:28,-0.000,0.0,0.0,0.0
25/03/2023,05:55:28,0.000,0.0,0.0,0.0
25/03/2023,05:56:28,0.001,0.0,0.0,0.0
25/03/2023,05:57:28,0.000,0.0,0.0,0.0
25/03/2023,05:58:28,0.000,0.0,0.0,0.0
25/03/2023,05:59:28,-0.000,0.0,0.0,0.0
25/03/2023,06:00:28,0.000,0.0,0.0,0.0
25/03/2023,06:01:28,0.000,0.0,0.0,0.0
25/03/2023,06:02:28,0.001,0.0,0.0,0.0
25/03/2023,06:03:27,0.001,0.0,0.0,0.0
25/03/2023,06:04:28,0.001,0.0,0.0,0.0
25/03/2023,06:05:28,0.001,0.0,0.0,0.0
25/03/2023,06:06:28,0.001,0.0,0.0,0.0
25/03/2023,06:07:27,0.001,0.0,0.0,0.0
25/03/2023,06:08:28,0.000,0.0,0.0,0.0
25/03/2023,06:09:27,0.001,0.0,0.0,0.0
25/03/2023,06:10:28,0.001,0.0,0.0,0.0
25/03/2023,06:11:28,0.001,0.0,0.0,0.0
25/03/2023,06:12:28,0.001,0.0,0.0,0.0
25/03/2023,06:13:28,0.001,0.0,0.0,0.0
25/03/2023,06:14:27,0.001,0.0,0.0,0.0
25/03/2023,06:15:29,0.002,0.0,0.0,0.0
25/03/2023,06:16:28,0.001,0.0,0.0,0.0
25/03/2023,06:17:28,0.003,0.0,0.0,0.0
25/03/2023,06:18:28,0.003,0.0,0.0,0.0
25/03/2023,06:19:28,0.003,0.0,0.0,0.0
25/03/2023,06:20:28,0.005,0.0,0.0,0.0
25/03/2023,06:21:28,0.004,0.0,0.0,0.0
25/03/2023,06:22:28,0.003,0.0,0.0,0.0
25/03/2023,06:23:28,0.005,0.0,0.0,0.0
25/03/2023,06:24:28,0.005,0.0,0.0,0.0
25/03/2023,06:25:28,0.004,0.0,0.0,0.0
25/03/2023,06:26:28,0.003,0.0,0.0,0.0
25/03/2023,06:27:28,0.003,0.0,0.0,0.0
25/03/2023,06:28:28,0.002,0.0,0.0,0.0
25/03/2023,06:29:28,0.002,0.0,0.0,0.0
25/03/2023,06:30:27,0.002,0.0,0.0,0.0
25/03/2023,06:31:28,0.003,0.0,0.0,0.0
25/03/2023,06:32:28,0.005,0.0,0.0,0.0
25/03/2023,06:33:28,0.006,0.0,0.0,0.0
25/03/2023,06:34:29,0.005,0.0,0.0,0.0
25/03/2023,06:35:28,0.007,0.0,0.0,0.0
25/03/2023,06:36:28,0.010,0.0,0.0,0.0
25/03/2023,06:37:28,0.011,0.0,0.0,0.0
25/03/2023,06:38:28,0.013,0.0,0.001,0.001
25/03/2023,06:39:28,0.013,0.0,0.001,0.0
25/03/2023,06:40:28,0.015,0.0,0.001,0.0
25/03/2023,06:41:28,0.014,0.0,0.001,0.0
25/03/2023,06:42:28,0.015,0.0,0.002,0.001
25/03/2023,06:43:28,0.017,0.0,0.002,0.0
25/03/2023,06:44:28,0.018,0.0,0.002,0.0
25/03/2023,06:45:28,0.019,0.0,0.002,0.0
25/03/2023,06:46:28,0.020,0.0,0.003,0.001
25/03/2023,06:47:28,0.021,0.0,0.003,0.0
25/03/2023,06:48:28,0.022,0.0,0.004,0.001
25/03/2023,06:49:28,0.022,0.0,0.004,0.0
25/03/2023,06:50:28,0.023,0.0,0.004,0.0
25/03/2023,06:51:28,0.024,0.0,0.005,0.001
25/03/2023,06:52:28,0.024,0.0,0.005,0.0
25/03/2023,06:53:28,0.024,0.0,0.005,0.0
25/03/2023,06:54:28,0.022,0.0,0.006,0.001
25/03/2023,06:55:28,0.023,0.0,0.006,0.0
25/03/2023,06:56:28,0.024,0.0,0.007,0.001
25/03/2023,06:57:28,0.023,0.0,0.007,0.0
25/03/2023,06:58:28,0.023,0.0,0.007,0.0
25/03/2023,06:59:28,0.024,0.0,0.008,0.001
25/03/2023,07:00:28,0.024,0.0,0.008,0.0
25/03/2023,07:01:28,0.028,0.0,0.009,0.001
25/03/2023,07:02:28,0.030,0.0,0.009,0.0
25/03/2023,07:03:28,0.031,0.0,0.01,0.001
25/03/2023,07:04:28,0.034,0.0,0.01,0.0
25/03/2023,07:05:28,0.036,0.0,0.011,0.001
25/03/2023,07:06:27,0.038,0.0,0.011,0.0
25/03/2023,07:07:28,0.039,0.0,0.012,0.001
25/03/2023,07:08:28,0.039,0.0,0.013,0.001
25/03/2023,07:09:28,0.038,0.0,0.013,0.0
25/03/2023,07:10:28,0.038,0.0,0.014,0.001
25/03/2023,07:11:28,0.038,0.0,0.015,0.001
25/03/2023,07:12:28,0.039,0.0,0.015,0.0
25/03/2023,07:13:28,0.039,0.0,0.016,0.001
25/03/2023,07:14:28,0.039,0.0,0.016,0.0
25/03/2023,07:15:28,0.040,0.0,0.017,0.001
25/03/2023,07:16:28,0.042,0.0,0.018,0.001
25/03/2023,07:17:28,0.044,0.0,0.019,0.001
25/03/2023,07:18:28,0.042,0.0,0.019,0.0
25/03/2023,07:19:28,0.043,0.0,0.02,0.001
25/03/2023,07:20:28,0.043,0.0,0.021,0.001
25/03/2023,07:21:27,0.044,0.0,0.021,0.0
25/03/2023,07:22:28,0.045,0.0,0.022,0.001
25/03/2023,07:23:28,0.048,0.0,0.023,0.001
25/03/2023,07:24:28,0.057,0.0,0.024,0.001
25/03/2023,07:25:28,0.061,0.0,0.025,0.001
25/03/2023,07:26:28,0.064,0.0,0.026,0.001
25/03/2023,07:27:28,0.066,0.0,0.027,0.001
25/03/2023,07:28:28,0.067,0.0,0.028,0.001
25/03/2023,07:29:28,0.070,0.0,0.029,0.001
25/03/2023,07:30:28,0.069,0.0,0.03,0.001
25/03/2023,07:31:28,0.073,0.0,0.032,0.002
25/03/2023,07:32:28,0.075,0.0,0.033,0.001
25/03/2023,07:33:28,0.077,0.0,0.034,0.001
25/03/2023,07:34:28,0.079,0.0,0.035,0.001
25/03/2023,07:35:28,0.085,0.0,0.037,0.002
25/03/2023,07:36:28,0.082,0.0,0.038,0.001
25/03/2023,07:37:28,0.083,0.0,0.039,0.001
25/03/2023,07:38:28,0.086,0.0,0.041,0.002
25/03/2023,07:39:28,0.087,0.0,0.042,0.001
25/03/2023,07:40:28,0.090,0.0,0.044,0.002
25/03/2023,07:41:28,0.092,0.0,0.045,0.001
25/03/2023,07:42:28,0.098,0.0,0.047,0.002
25/03/2023,07:43:28,0.100,0.0,0.049,0.002
25/03/2023,07:44:28,0.102,0.0,0.05,0.001
25/03/2023,07:45:28,0.105,0.0,0.052,0.002
25/03/2023,07:46:28,0.106,0.0,0.054,0.002
25/03/2023,07:47:28,0.109,0.0,0.056,0.002
25/03/2023,07:48:28,0.110,0.0,0.057,0.001
25/03/2023,07:49:28,0.111,0.0,0.059,0.002
25/03/2023,07:50:27,0.113,0.0,0.061,0.002
25/03/2023,07:51:28,0.113,0.0,0.063,0.002
25/03/2023,07:52:28,0.116,0.0,0.065,0.002
25/03/2023,07:53:28,0.118,0.0,0.067,0.002
25/03/2023,07:54:28,0.125,0.0,0.069,0.002
25/03/2023,07:55:28,0.126,0.0,0.071,0.002
25/03/2023,07:56:28,0.130,0.0,0.073,0.002
25/03/2023,07:57:28,0.132,0.0,0.075,0.002
25/03/2023,07:58:28,0.135,0.0,0.078,0.003
25/03/2023,07:59:28,0.136,0.0,0.08,0.002
25/03/2023,08:00:28,0.140,0.0,0.082,0.002
25/03/2023,08:01:28,0.143,0.0,0.085,0.003
25/03/2023,08:02:28,0.145,0.0,0.087,0.002
25/03/2023,08:03:28,0.148,0.0,0.089,0.002
25/03/2023,08:04:28,0.150,0.0,0.092,0.003
25/03/2023,08:05:28,0.154,0.0,0.094,0.002
25/03/2023,08:06:28,0.156,0.0,0.097,0.003
25/03/2023,08:07:28,0.159,0.0,0.1,0.003
25/03/2023,08:08:28,0.162,0.0,0.102,0.002
25/03/2023,08:09:28,0.164,0.0,0.105,0.003
25/03/2023,08:10:27,0.167,0.0,0.108,0.003
25/03/2023,08:11:58,0.172,0.0,0.112,0.004
25/03/2023,08:13:28,0.176,0.0,0.116,0.004
25/03/2023,08:14:28,0.179,0.0,0.119,0.003
25/03/2023,08:15:28,0.183,0.0,0.122,0.003
25/03/2023,08:16:28,0.185,0.0,0.125,0.003
25/03/2023,08:17:28,0.188,0.0,0.129,0.004
25/03/2023,08:18:28,0.191,0.0,0.132,0.003
25/03/2023,08:19:28,0.194,0.0,0.135,0.003
25/03/2023,08:20:28,0.198,0.0,0.138,0.003
25/03/2023,08:21:28,0.201,0.0,0.141,0.003
25/03/2023,08:22:29,0.204,0.0,0.145,0.004
25/03/2023,08:23:29,0.207,0.0,0.148,0.003
25/03/2023,08:24:28,0.211,0.0,0.152,0.004
25/03/2023,08:25:28,0.215,0.0,0.155,0.003
25/03/2023,08:26:28,0.219,1.0,0.159,0.004
25/03/2023,08:27:28,0.221,1.0,0.163,0.004
25/03/2023,08:28:28,0.226,1.0,0.166,0.003
25/03/2023,08:29:28,0.228,1.0,0.17,0.004
25/03/2023,08:30:28,0.231,1.0,0.174,0.004
25/03/2023,08:31:28,0.234,1.0,0.178,0.004
25/03/2023,08:32:28,0.237,1.0,0.182,0.004
25/03/2023,08:33:28,0.241,1.0,0.186,0.004
25/03/2023,08:34:28,0.245,1.0,0.19,0.004
25/03/2023,08:35:28,0.248,1.0,0.194,0.004
25/03/2023,08:36:28,0.252,1.0,0.198,0.004
25/03/2023,08:37:28,0.254,1.0,0.202,0.004
25/03/2023,08:38:28,0.258,1.0,0.207,0.005
25/03/2023,08:39:28,0.263,1.0,0.211,0.004
25/03/2023,08:40:28,0.273,1.0,0.215,0.004
25/03/2023,08:41:28,0.270,1.0,0.22,0.005
25/03/2023,08:42:28,0.239,1.0,0.224,0.004
25/03/2023,08:43:28,0.275,1.0,0.228,0.004
25/03/2023,08:44:28,0.280,1.0,0.233,0.005
25/03/2023,08:45:28,0.285,1.0,0.237,0.004
25/03/2023,08:46:28,0.288,1.0,0.242,0.005
25/03/2023,08:47:28,0.296,1.0,0.247,0.005
25/03/2023,08:48:28,0.301,1.0,0.252,0.005
25/03/2023,08:49:28,0.304,1.0,0.257,0.005
25/03/2023,08:50:28,0.296,1.0,0.262,0.005
25/03/2023,08:51:28,0.284,1.0,0.266,0.004
25/03/2023,08:52:28,0.311,1.0,0.272,0.006
25/03/2023,08:53:28,0.315,1.0,0.277,0.005
25/03/2023,08:54:28,0.319,1.0,0.282,0.005
25/03/2023,08:55:28,0.324,1.0,0.287,0.005
25/03/2023,08:56:28,0.328,1.0,0.293,0.006
25/03/2023,08:57:28,0.332,1.0,0.298,0.005
25/03/2023,08:58:28,0.336,1.0,0.304,0.006
25/03/2023,08:59:28,0.340,1.0,0.31,0.006
25/03/2023,09:00:28,0.344,1.0,0.315,0.005
25/03/2023,09:01:28,0.349,1.0,0.321,0.006
25/03/2023,09:02:28,0.353,1.0,0.327,0.006
25/03/2023,09:03:29,0.355,1.0,0.333,0.006
25/03/2023,09:04:28,0.337,1.0,0.339,0.006
25/03/2023,09:05:28,0.369,1.0,0.344,0.005
25/03/2023,09:06:28,0.373,1.0,0.35,0.006
25/03/2023,09:07:28,0.374,1.0,0.356,0.006
25/03/2023,09:08:28,0.381,1.0,0.363,0.007
25/03/2023,09:09:28,0.386,1.0,0.369,0.006
25/03/2023,09:10:28,0.300,1.0,0.375,0.006
25/03/2023,09:11:28,0.396,1.0,0.381,0.006
25/03/2023,09:12:28,0.392,1.0,0.388,0.007
25/03/2023,09:13:28,0.360,1.0,0.394,0.006
25/03/2023,09:14:28,0.293,1.0,0.399,0.005
25/03/2023,09:15:28,0.405,1.0,0.404,0.005
25/03/2023,09:16:28,0.400,1.0,0.411,0.007
25/03/2023,09:17:28,0.343,1.0,0.417,0.006
25/03/2023,09:18:29,0.410,1.0,0.422,0.005
25/03/2023,09:19:28,0.436,1.0,0.429,0.007
25/03/2023,09:20:28,0.304,1.0,0.435,0.006
25/03/2023,09:21:28,0.326,1.0,0.44,0.005
25/03/2023,09:22:28,0.315,1.0,0.446,0.006
25/03/2023,09:23:28,0.320,1.0,0.451,0.005
25/03/2023,09:24:28,0.309,1.0,0.457,0.006
25/03/2023,09:25:29,0.317,1.0,0.462,0.005
25/03/2023,09:26:28,0.333,1.0,0.467,0.005
25/03/2023,09:27:28,0.326,1.0,0.473,0.006
25/03/2023,09:28:28,0.333,1.0,0.478,0.005
25/03/2023,09:29:28,0.341,1.0,0.484,0.006
25/03/2023,09:30:28,0.341,1.0,0.489,0.005
25/03/2023,09:31:28,0.454,1.0,0.496,0.007
25/03/2023,09:32:28,0.492,1.0,0.503,0.007
25/03/2023,09:33:28,0.398,1.0,0.51,0.007
25/03/2023,09:34:29,0.509,1.0,0.516,0.006
25/03/2023,09:35:28,0.394,1.0,0.523,0.007
25/03/2023,09:36:28,0.365,1.0,0.529,0.006
25/03/2023,09:37:28,0.317,1.0,0.535,0.006
25/03/2023,09:38:29,0.322,1.0,0.54,0.005
25/03/2023,09:39:28,0.334,1.0,0.546,0.006
25/03/2023,09:40:28,0.332,1.0,0.551,0.005
25/03/2023,09:41:30,0.356,1.0,0.557,0.006
25/03/2023,09:42:29,0.368,1.0,0.564,0.007
25/03/2023,09:43:28,0.339,1.0,0.57,0.006
25/03/2023,09:44:28,0.320,1.0,0.575,0.005
25/03/2023,09:45:28,0.304,1.0,0.58,0.005
25/03/2023,09:46:28,0.279,1.0,0.585,0.005
25/03/2023,09:47:28,0.264,1.0,0.59,0.005
25/03/2023,09:48:29,0.262,1.0,0.594,0.004
25/03/2023,09:49:28,0.264,1.0,0.599,0.005
25/03/2023,09:50:29,0.281,1.0,0.603,0.004
25/03/2023,09:51:29,0.303,1.0,0.608,0.005
25/03/2023,09:52:28,0.323,1.0,0.613,0.005
25/03/2023,09:53:28,0.342,1.0,0.619,0.006
25/03/2023,09:54:28,0.329,1.0,0.624,0.005
25/03/2023,09:55:28,0.315,1.0,0.63,0.006
25/03/2023,09:56:28,0.353,1.0,0.635,0.005
25/03/2023,09:57:28,0.383,1.0,0.641,0.006
25/03/2023,09:58:28,0.389,1.0,0.648,0.007
25/03/2023,09:59:28,0.379,1.0,0.655,0.007
25/03/2023,10:00:28,0.396,1.0,0.661,0.006
25/03/2023,10:01:28,0.472,1.0,0.668,0.007
25/03/2023,10:02:28,0.489,1.0,0.678,0.01
25/03/2023,10:03:28,0.645,1.0,0.688,0.01
25/03/2023,10:04:28,0.474,1.0,0.697,0.009
25/03/2023,10:05:29,0.429,1.0,0.704,0.007
25/03/2023,10:06:28,0.466,1.0,0.711,0.007
25/03/2023,10:07:29,0.397,1.0,0.719,0.008
25/03/2023,10:08:28,0.364,1.0,0.726,0.007
25/03/2023,10:09:28,0.358,1.0,0.732,0.006
25/03/2023,10:10:28,0.364,1.0,0.738,0.006